THORAD DELTA 1 DEB, 8439

Orbit data source: Space-Track

THORAD DELTA 1 DEB, 8439 is space debris in SSO originally from a launch on Fri, 15 Nov 1974 UTC launched from the Air Force Western Test Range (AFWTR). Debris objects in space refer to the collection of defunct objects orbiting the Earth. Examples of debris include non-operational satellites, rocket bodies, and fragments generated from explosions, collisions, or faulty payload assembly.

Loading next visibility...
Identifier
8439, 1974-089CQ
Orbit
SSO
Country
Flag of USUS
Related business
Manufacturer
Unknown
Mission
Spacecraft
Bus & Motor
Unknown
Mass
Unknown
Launch date (UTC)
1974-11-15 (51 years ago)
Launch vehicle
Unknown
Launch site
Air Force Western Test Range (AFWTR)
Object type
Payload
Rocket body
Debris
Shape & HBR
Unknown shape, 0.2 m
Radar Cross Section
Small (<0.1 m²)

Expand to show TLE details & history
Last TLE update: 11 hours ago

TLE from 11 hours ago
0 THORAD DELTA 1 DEB
1  8439U 74089CQ  25288.64121913  .00003349  00000-0  11169-1 0  9992
2  8439 102.3335  55.3147 0050721 150.8523 209.5421 13.00411817384876
Epoch: 2025-10-15T15:23Z
TLE epoch observation values (Epoch: 2025-10-15T15:23:21.332Z)
Latitude
0.00002°
Longitude
160.06343°
Altitude
1,296.854 km
Speed
7.192 km/s
True Right ascension
03h 41m 15s
True Declination
0° 00' 00"
Sunlit
Object was in full shadow at epoch
Visualization orbit readout
Latitude
Unknown
Longitude
Unknown
Altitude
Unknown
Speed
Unknown
Apparent Right ascension
Unknown
Apparent Declination
Unknown
Sunlit
N/A
Visualization observer readout
Local Sidereal Time
20:42:12
Azimuth
Unknown
Elevation
Unknown
Doppler factor
Unknown
Orbital elements
Apogee altitude
1,296.725 km
Perigee altitude
1,219.263 km
Semi-major axis
7,636.131 km
Eccentricity
0.00507
Inclination
102.3335°
RAAN
55.3147°
Arg. of periapsis
150.8523°
True anomaly
209.2571°
Mean anomaly
209.5421°
Eccentric anomaly
209.39944°
Mean motion
3.25262 °/min
Orbital period
110.68 mins
BSTAR
0.011169
Loading maneuver chart data...
Computing Atmospheric mass density...

Documentation

Showing up to 5 results
|